Location: Unspecified
(0.0000°N, 0.0000°E)
Time: 03:03:17
(UTC+00:00)

Vanguard 1 Rocket - Pass Details

Date: 28 November 2022
Orbit: 651 x 4224 km, 34.3° (Epoch: 07 February)

Event Time Altitude Azimuth Distance (km) Brightness Sun altitude
Rises 19:58:33 0° 236° (SW) 8,464 13.5 -30.1°
Reaches altitude 10° 20:08:52 10° 218° (SW) 7,177 12.6 -32.5°
Maximum altitude 20:22:21 18° 182° (S) 5,702 11.6 -35.5°
Drops below altitude 10° 20:32:33 10° 145° (SE) 5,354 11.2 -37.8°
Enters shadow 20:37:15 - 129° (SE) 5,610 11.2 -38.8°
